Regional Weather Roundup
Issued by NWS Wakefield, VA

Home | Current Version | Previous Version | Graphics & Text | Print | Product List | Glossary On
Versions: 1 2 3 4 5 6 7 8 9 10 11 12 13 14 15 16 17 18 19 20 21 22 23 24 25 26 27 28 29 30 31 32 33 34 35 36 37 38 39 40 41 42 43 44 45 46 47 48 49 50
000
ASUS41 KAKQ 051015
RWRAKQ

REGIONAL WEATHER ROUNDUP
NATIONAL WEATHER SERVICE WAKEFIELD VA
600 AM EDT TUE MAY 05 2015

Note: "fair" indicates few or no clouds below 12,000 feet with no
significant weather and/or obstructions to visibility. * = Denotes
station may not report precipitation (e.g., rain,snow,etc.),
thunder or fog.

VAZ042-051-052>054-056-051100-
NORTHERN VIRGINIA

CITY           SKY/WX    TMP DP  RH WIND       PRES   REMARKS
WASH NATIONAL  PTCLDY    65  54  67 S7        30.22R
DULLES         PTCLDY    61  53  75 S3        30.21S
FORT BELVOIR   CLEAR     56  54  90 CALM      30.22R
QUANTICO       CLEAR     64  52  64 CALM      30.23R
FREDERICKSBRG* CLEAR     65  55  70 S3        30.21S
STAFFORD*      CLEAR     62  51  67 CALM      30.26R
WARRENTON      CLEAR     57  55  91 CALM      30.22R
CULPEPER*      NOT AVBL
MANASSAS*      CLEAR     55  54  94 S3        30.22R
LEESBURG*      CLEAR     61  55  82 SW5       30.23R
WINCHESTER     MOCLDY    61  48  63 CALM      30.22S
FRONT ROYAL*   FAIR      59  52  77 CALM      30.23R
LURAY*         FAIR      54  54 100 CALM      30.24R
$$

VAZ048-049-060>072-079>083-051100-
CENTRAL AND SOUTH CENTRAL VIRGINIA

CITY           SKY/WX    TMP DP  RH WIND       PRES   REMARKS
RICHMOND       PTCLDY    61  54  77 S9        30.26S
CHESTERFIELD*  FAIR      61  46  59 SW7       30.27S
PETERSBURG*    CLEAR     61  54  78 S5        30.28R
HANOVER        CLEAR     63  54  72 S8        30.26S
TAPPAHANNOCK*  CLEAR     63  52  67 S6        30.25S
QUINTON*       FAIR      61  55  78 S5        30.26S
CHARLOTTSVILLE CLEAR     58  53  84 SW3       30.22S
GORDONSVILLE*  FAIR      55  53  92 CALM      30.22S
ORANGE*        CLEAR     59  54  82 CALM      30.24R
LOUISA*        CLEAR     61  54  77 S3        30.22S
BUMPASS*       FAIR      61  53  76 SW7       30.23S
FARMVILLE*     CLEAR     59  54  84 S6        30.25R
CREWE*         FAIR      62  54  75 S8        30.26S
FORT PICKETT*  FAIR      60  55  82 SW10      30.28R
CHASE CITY*    FAIR      62  58  87 S3        30.29S
CLARKSVILLE*   FAIR      59  54  82 S8        30.28S
SOUTH HILL*    CLEAR     55  53  91 CALM      30.35S
LAWRENCEVILLE* FAIR      58  55  87 SW5       30.29S
EMPORIA*       CLEAR     54  52  94 CALM      30.32R
$$

VAZ088>098-051100-
SOUTHEAST VIRGINIA

CITY           SKY/WX    TMP DP  RH WIND       PRES   REMARKS
NORFOLK        CLEAR     63  48  58 SW13      30.29S
VIRGINIA BEACH MOCLDY    65  50  58 SW10      30.29S
NORFOLK NAVAL  PTCLDY    67  49  52 SW10      30.31R
WEST POINT*    CLEAR     66  51  59 SW8       30.28S
SALUDA*        FAIR      65  51  61 SW10G20   30.25S
NEWPORT NEWS   CLEAR     66  51  58 SW12      30.29S
LANGLEY AFB    CLEAR     64  50  59 SW14      30.27S
FORT EUSTIS    CLEAR     63  52  67 S5        30.27S
WILLIAMSBURG*  CLEAR     66  54  63 SW9       30.29S
HR EXEC AP*    FAIR      61  48  63 SW6       30.31F
FRANKLIN*      CLEAR     59  50  71 S6        30.32R
WAKEFIELD      CLEAR     62  51  67 SW5       30.29S
$$

VAZ020-022-025-037-045-051100-
WEST CENTRAL AND SOUTHWEST VIRGINIA

CITY           SKY/WX    TMP DP  RH WIND       PRES   REMARKS
STAUNTON*      CLEAR     51  48  91 CALM      30.27S
WAYNESBORO*    FAIR      54  50  86 CALM      30.26R
HOT SPRINGS VA CLEAR     57  44  60 W9        30.34R
LYNCHBURG      CLEAR     55  52  89 SW3       30.27S
DANVILLE       CLEAR     60  53  77 S7        30.29S
SOUTH BOSTON*  FAIR      60  54  79 SW6       30.28S
MARTINSVILLE   CLEAR     57  57 100 S3        30.31S
ROANOKE        CLEAR     59  52  77 CALM      30.29R
BLACKSBURG     CLEAR     50  48  93 CALM      30.34S
DUBLIN*        CLEAR     49  49 100 CALM      30.33S
MARION*        CLEAR     49  46  90 CALM      30.37R
HILLSVILLE*    CLEAR     55  49  82 SW6       30.34S
RICHLANDS*     FAIR      60  42  52 CALM      30.34R
WISE*          CLEAR     54  43  66 SW6       30.35S
ABINGDON*      CLEAR     53  49  87 CALM      30.34R
$$

MDZ021>025-VAZ099-100-051100-
SOUTHERN MARYLAND AND THE DELMARVA PENINSULA

CITY           SKY/WX    TMP DP  RH WIND       PRES   REMARKS
PATUXENT RIVER PTCLDY    64  54  69 SW16      30.21S
BAY BRIDGE APT   N/A    N/A N/A N/A S5        30.21R
LEONARDTOWN    CLEAR     63  52  67 SW8       30.24R
DOVER          PTCLDY    66  54  63 W7        30.18R
GEORGETOWN     CLEAR     64  54  69 SW16      30.22S
EASTON         CLEAR     62  56  82 SW6       30.24S
CAMBRIDGE      CLEAR     63  54  72 S3        30.22R
SALISBURY      CLEAR     62  53  72 SW10      30.23S
OCEAN CITY     CLEAR     65  52  62 W14       30.23F
WALLOPS ISLAND CLEAR     66  50  56 SW10G20   30.25S
ACCOMACK*      CLEAR     64  41  42 SW12G17   30.27R
$$

NCZ012>017-030>032-051100-
NORTH CENTRAL AND EASTERN NORTH CAROLINA

CITY           SKY/WX    TMP DP  RH WIND       PRES   REMARKS
ROANOKE RAPIDS FAIR      55  52  88 S3        30.32R
RALEIGH        PTCLDY    57  53  86 SW7       30.33R
ELIZABETH CITY CLEAR     59  53  80 S5        30.32S
AHOSKIE*       CLEAR     55  49  83 CALM      30.33R
EDENTON*       PTCLDY    59  55  86 SW5       30.33S
CURRITUCK*     PTCLDY    60  51  72 SW3       30.33R
KILL DEVIL HLS CLEAR     61  55  80 SW3       30.32S
MANTEO         CLEAR     60  54  80 SW3       30.34S
CAPE HATTERAS  CLEAR     56  54  93 W5        30.34S
TARBORO*       PTSUNNY   55  53  94 CALM      30.33S
GOLDSBORO      NOT AVBL
WASHINGTON     CLEAR     54  52  94 CALM      30.34S
GREENVILLE     PTCLDY    54  54 100 CALM      30.34R
NEW BERN       CLEAR     51  48  89 CALM      30.35S
WILMINGTON     CLEAR     52  51  97 CALM      30.34R
$$

VAZ048-051100-
ELSEWHERE

CITY           SKY/WX    TMP DP  RH WIND       PRES   REMARKS
HARRISBURG PA  MOCLDY    60  53  77 CALM      30.19R
BALTIMORE      PTCLDY    62  53  72 SW3       30.19R
ANNAPOLIS      CLEAR     65  51  60 CALM      30.20R
ANDREWS AFB    CLEAR     63  53  69 SW9       30.21R
PHILADELPHIA   PTCLDY    62  53  72 SW3       30.19R
HENDERSON NC   CLEAR     58  52  80 SW7       30.31R
GREENSBORO     CLEAR     59  54  83 SW8       30.30S
ROCKY MOUNT    PTCLDY    56  52  86 SW3       30.33R
$$

VAZ100-051100-
MARINE

STATION/POSITION TIME  TEMP    WIND        PRES    WAVE   SWELL
                       AIR SEA DIR/SP/G            HT/PER HT/PER
                 (UTC) (F)     (DEG/KT/KT) (MB)    (FT/S) (FT/S)
BRANDYWINE LGT   0900   64 56  230/ 19/ 20 1022.3F
CAPE MAY NJ      0900   63 60  210/  9/ 12 1022.3F
LEWES DE         0900   66 54  240/  9/ 13 1022.4F
15NM E FENWICK I 0950   56 53              1023.3S   4/ 5
OCEAN-CITY-INLET 0900   65 57  240/ 12/ 16 1023.4F
WACHAPREAGUE VA  0900   65 67  240/  7/ 11 1024.9F
THOMAS POINT MD  1000   66 58  220/  9/ 10 1023.5R
GOOSES REEF MD   1000   64 59                N/A     2/ 2
COVE POINT MD    0900   66     260/ 19/ 24 1023.0F
SOLOMONS ISLAND  0900      60                N/A
BISHOPS HEAD MD  0900   65 63  210/ 12/ 16 1023.2F
PINEY POINT MD   0900          240/  4/  6   N/A
CAMBRIDGE MD     0900   65 62  190/  5/  8 1022.9S
LEWISETTA VA     0900   65 64              1023.2F
RAPPAHANNOCK LGT 0900          200/ 15/ 16 1025.3F
YORK RVR RNG VA  0900   66     240/ 14/ 16 1024.5F
YORKTOWN VA      0900   65 62  230/ 13/ 18 1024.6F
JAMESTOWN VA     1000   64 64  230/ 10/ 17 1024.3S
DOMINION TERM VA 0900   65     230/ 12/ 15 1025.6F
KIPTOPEKE VA     0900      65  220/  6/  8   N/A
CHES BAY BRIDGE  0900   64 60  210/ 15/ 17 1025.1F
CAPE HENRY VA    0900   66     220/ 11/ 18 1024.2F
CHESAPEAKE LGHT  0900   63     230/ 18/ 19 1026.2F
WILLOUBY STN VA  0900   64     220/ 15/ 16 1026.1F
S CRANEY ISL VA  0900          220/  6/ 10 1025.8F
CAPE HENRY BUOY  0928      59                N/A     2/ 9   2/11
1ST LANDING BUOY 1000      59              1048.4S   1/ 3
CAPE CHARLES BUO 0926      57                N/A     3/ 8   2/ 8
OFFSHORE WE BUOY 0911      53                N/A     3/12   3/12
64NM E OF VA BCH 0950   61 60  220/ 12/ 14 1026.2S   3/10   3/10
DUCK PIER NC     0900   64 53  230/  8/ 10 1025.7F
44056 DUCK FRF   0911      56                N/A     2/ 9   2/11
OREGON INLET NC  0900   65 67  220/  7/  8 1026.9F
HATTERAS NC      0900   65 64  220/  5/  6 1026.8S
DIAMOND SHLS NC  0950   72 76  190/ 10/ 14 1027.4R   3/10   2/10
CAPE LOOKOUT NC  1000   67     180/  3/  3 1027.0R
$$



USA.gov is the U.S. government's official web portal to all federal, state and local government web resources and services.